Regional Weather Roundup
Issued by NWS

Home | Current Version | Previous Version | Text Only | Print | Product List | Glossary On
Versions: 1 2 3 4 5 6 7 8 9 10 11 12 13 14 15 16 17 18 19 20 21 22 23 24 25 26 27 28 29 30 31 32 33 34 35 36 37 38 39 40 41 42 43 44 45 46 47 48 49 50
226
ASUS45 KPSR 131610
RWRAZ

ARIZONA HOURLY REGIONAL WEATHER ROUNDUP
NATIONAL WEATHER SERVICE PHOENIX AZ
900 AM MST FRI DEC 13 2019

NOTE: FAIR INDICATES FEW OR NO CLOUDS BELOW 12,000 FEET WITH NO
SIGNIFICANT WEATHER AND/OR OBSTRUCTIONS TO VISIBILITY.

AZZ001>003-036-131700-
NORTHWEST ARIZONA

CITY           SKY/WX    TMP DP  RH WIND       PRES   REMARKS
BULLHEAD CITY  MOSUNNY   46  43  87 CALM      30.20R
KINGMAN        SUNNY     44  33  65 CALM      30.20R
$$

AZZ004>008-015-016-018-131700-
NORTH CENTRAL ARIZONA

CITY           SKY/WX    TMP DP  RH WIND       PRES   REMARKS
GRAND CANYON   SUNNY     31  27  85 CALM      30.27R
WILLIAMS       SUNNY     43  25  49 S6        30.29
PRESCOTT       SUNNY     39  30  70 S5        30.26R
FLAGSTAFF      SUNNY     41  26  55 VRB3      30.29R
PAYSON         SUNNY     45  30  57 CALM      30.26
PAGE           PTSUNNY   41  32  70 E8        30.19R
$$

AZZ009>014-017-131700-
NORTHEAST ARIZONA

CITY           SKY/WX    TMP DP  RH WIND       PRES   REMARKS
WINSLOW        SUNNY     37  31  78 SE5       30.25R WCI  33
SAINT JOHNS    MOSUNNY   41  31  67 CALM      30.25R
WINDOW ROCK    MOSUNNY   46  27  47 W14       30.23R
SHOW LOW       SUNNY     46  30  53 SW8       30.30
$$

AZZ540-542>544-546-548-131700-
GREATER PHOENIX AREA

CITY           SKY/WX    TMP DP  RH WIND       PRES   REMARKS
PHOENIX        MOSUNNY   52  44  74 SE8       30.16F
BUCKEYE        SUNNY     50  48  93 E8        30.18
GLENDALE       MOSUNNY   52  46  82 CALM      30.20S
LUKE AFB       SUNNY     50  46  87 W3        30.17S
DEER VALLEY    SUNNY     52  43  71 N5        30.18S
SCOTTSDALE     SUNNY     50  43  77 CALM      30.19S
MESA-FALCON    SUNNY     53  44  71 NE3       30.18F
MESA-GATEWAY   SUNNY     48  45  87 SE8       30.19F
CHANDLER       SUNNY     48  46  93 CALM      30.19S
$$

AZZ539-553-131700-
SOUTHWEST MARICOPA COUNTY AND PINAL COUNTY

CITY           SKY/WX    TMP DP  RH WIND       PRES   REMARKS
CASA GRANDE    SUNNY     47  42  83 SE5       30.19F
GILA BEND      FAIR      49  44  84 CALM      30.16S
$$

AZZ503-504-507>509-131700-
SOUTHEAST ARIZONA

CITY           SKY/WX    TMP DP  RH WIND       PRES   REMARKS
TUCSON         SUNNY     49  33  54 SE6       30.22S
DAVIS-MONTHAN  SUNNY     50  34  54 SE6       30.20
NOGALES        SUNNY     45  33  63 S3        30.24R
SIERRA VISTA   SUNNY     51  32  46 SE3       30.28
DOUGLAS        SUNNY     40  35  83 CALM      30.27R
SAFFORD        SUNNY     43  40  89 CALM      30.23S
$$

AZZ532-131700-
SOUTHWEST ARIZONA

CITY           SKY/WX    TMP DP  RH WIND       PRES   REMARKS
YUMA           SUNNY     56  41  57 N12       30.15R
$$

CAZ041-043-047-048-061-525>527-560>570-131700-
SOUTHERN CALIFORNIA

CITY           SKY/WX    TMP DP  RH WIND       PRES   REMARKS
DOWNTOWN L.A.  SUNNY     56  49  77 CALM      30.15S HAZE
L.A. AIRPORT   MOSUNNY   57  52  83 E3        30.15S
SAN DIEGO      MOSUNNY   56  55  97 CALM      30.16R FOG
BURBANK        SUNNY     53  45  74 CALM      30.14S
ONTARIO        SUNNY     54  44  69 CALM      30.15S
RIVERSIDE      SUNNY     50  43  77 CALM      30.16S
PALM SPRINGS   SUNNY     54  43  66 CALM      30.19R
EL CENTRO NAS  SUNNY     52  39  61 SW5       30.17S
IMPERIAL       SUNNY     52  41  66 SW5       30.15S
BLYTHE         SUNNY     52  43  71 CALM      30.19R
NEEDLES        SUNNY     50  42  74 SW5       30.19S
$$

NVZ020-UTZ003-131700-
SOUTHERN NEVADA-UTAH

CITY           SKY/WX    TMP DP  RH WIND       PRES   REMARKS
LAS VEGAS      MOSUNNY   46  36  68 CALM      30.20R
SALT LAKE CITY CLOUDY    39  36  89 SE5       30.22R
$$

NMZ009-TXZ055-131700-
NEW MEXICO-WEST TEXAS

CITY           SKY/WX    TMP DP  RH WIND       PRES   REMARKS
ALBUQUERQUE    MOSUNNY   40  29  64 SE7       30.15R
EL PASO        MOSUNNY   50  37  62 SE6       30.17S
$$


........................KEY........................
SKY/WX - SKY CONDITION/WEATHER
TMP    - TEMPERATURE IN FAHRENHEIT
DP     - DEW POINT IN FAHRENHEIT
RH     - RELATIVE HUMIDITY IN PERCENT
WIND   - DIRECTION AND SPEED IN MILES PER HOUR (MPH)
VRB    - VARIABLE WIND DIRECTION
PRES   - MEAN SEA LEVEL PRESSURE IN INCHES OF MERCURY
         F - FALLING PRESSURE   R - RISING PRESSURE
         S - STEADY PRESSURE
VSB    - VISIBILITY IN MILES
HX     - HEAT INDEX IN FAHRENHEIT
WCI    - WIND CHILL INDEX IN FAHRENHEIT
TC     - TEMPERATURE IN CELSIUS WHICH IS ALSO KNOWN AS
         TEMPERATURE IN CENTIGRADE
AFB    - AIR FORCE BASE
         LUKE AFB IS LUKE AIR FORCE BASE
         DAVIS-MONTHAN IS DAVIS-MONTHAN AIR FORCE BASE
NAS    - NAVAL AIR STATION
         EL CENTRO NAS IS EL CENTRO NAVAL AIR STATION
N/A    - NOT AVAILABLE





USA.gov is the U.S. government's official web portal to all federal, state and local government web resources and services.